Theta_e
317 315 316 319 322 327 330 331 333 335 334 334 334 334 332 332 332 332 332 331 331 331 331 330 329 328 327 328 328 329 328 328 328 328 328 328 326 325 325 325 325 325 326 326 327 327 327 327 328 328 328 328 327 327 326 326 325 325 326 326 325 325 325 324 324 323 324 323 322 321 320 320 319 318
318 316 316 318 321 325 328 329 330 332 333 334 334 334 333 332 333 332 332 332 332 331 331 329 327 326 326 326 327 327 326 326 326 326 326 325 324 324 324 324 325 325 326 325 325 326 325 325 326 327 328 328 328 328 327 327 326 326 326 326 325 325 325 326 326 325 325 325 324 323 322 322 321 320
319 318 316 317 319 323 327 329 330 330 332 334 334 334 333 333 333 333 333 333 332 331 330 329 327 326 326 326 326 326 325 325 326 325 325 325 325 325 324 324 326 327 327 327 326 326 326 324 324 326 327 328 328 328 327 326 325 326 327 326 326 325 324 325 325 325 325 325 325 324 323 323 322 322
321 320 318 317 319 322 327 329 329 330 331 334 334 334 334 334 333 333 333 332 330 329 329 329 327 326 326 326 326 325 325 326 326 326 326 327 327 326 326 326 327 327 327 328 328 328 328 326 324 324 327 328 328 328 326 324 324 325 327 327 326 325 324 324 324 324 324 325 325 324 324 323 322 321
322 321 320 319 319 321 324 327 328 330 332 333 334 334 334 334 333 333 332 331 329 327 327 327 327 326 326 326 326 326 326 327 328 328 328 328 328 327 327 326 327 327 328 328 328 328 328 327 325 324 325 326 325 325 324 324 325 326 327 327 326 325 324 324 324 324 325 324 324 323 323 322 322 321
323 322 320 320 319 320 321 323 327 330 332 333 333 334 334 334 334 333 331 330 328 326 325 326 327 327 326 326 326 327 327 328 328 328 328 328 328 327 326 326 326 327 327 327 327 327 328 327 326 325 324 324 324 324 324 324 325 326 327 326 325 324 323 324 324 324 324 324 324 323 323 322 322 321
324 322 321 321 320 320 321 321 325 329 332 333 333 333 333 334 334 333 331 329 328 328 327 327 326 327 328 328 328 328 328 328 328 328 328 328 328 327 326 325 325 326 326 326 326 326 327 327 326 325 325 325 325 325 325 325 325 326 326 325 324 323 323 323 323 323 323 323 322 322 322 322 321 321
323 322 321 321 321 321 321 321 323 328 331 332 333 333 333 334 334 333 330 329 329 330 329 327 327 327 328 329 329 329 329 329 329 328 328 328 327 326 325 324 324 325 326 326 326 326 327 327 327 327 327 326 325 325 325 325 326 325 325 325 324 324 323 323 322 322 321 321 321 321 321 321 320 320
323 321 320 321 321 321 321 322 323 326 330 331 332 332 332 332 332 332 331 330 330 330 330 329 328 328 329 329 330 329 328 328 328 328 328 328 327 325 324 324 325 325 325 324 324 325 326 327 327 327 326 326 325 324 325 326 326 325 325 325 325 324 324 323 322 321 320 319 319 320 320 320 320 319
324 321 320 321 321 321 321 322 324 327 330 330 331 331 331 331 332 333 333 332 332 331 330 330 330 330 330 330 329 329 328 328 328 328 328 327 326 325 324 324 324 324 323 322 321 321 322 323 323 324 324 325 324 324 325 325 324 324 324 324 324 324 323 322 321 319 319 318 318 319 320 320 319 318
328 322 320 321 321 321 321 322 324 328 330 331 331 331 331 331 332 332 333 334 334 332 331 332 332 331 331 331 330 330 329 329 329 329 328 326 325 324 324 324 324 322 320 319 319 320 321 322 322 323 323 323 323 322 322 322 321 321 320 320 320 320 320 320 319 318 317 317 317 317 317 317 317 317
332 326 323 321 321 321 321 322 324 327 330 332 332 332 331 331 331 332 334 335 334 334 333 333 333 333 332 332 332 331 330 330 330 330 329 327 325 325 325 324 322 320 319 318 318 319 320 322 323 323 322 322 321 320 319 319 318 318 318 318 318 318 318 318 318 318 318 318 318 317 317 317 317 317
336 332 326 321 322 323 322 322 323 325 328 330 331 332 332 331 332 333 334 333 333 334 334 333 333 333 333 333 332 331 330 330 330 329 328 327 326 326 324 322 320 319 320 319 319 319 319 320 321 321 320 320 318 317 317 317 317 317 317 318 318 318 318 318 318 318 319 319 319 318 318 318 319 319
340 337 329 322 322 325 324 323 323 324 326 328 330 331 332 332 333 333 333 333 333 334 334 334 334 333 333 332 331 331 330 330 329 328 328 328 326 325 323 320 318 319 321 321 320 319 318 318 318 317 317 316 316 316 317 317 317 318 318 318 318 318 318 319 319 319 319 318 318 318 317 317 317 318
342 340 333 325 322 325 326 324 324 324 325 327 329 331 332 333 334 333 333 333 334 334 334 334 333 333 332 332 331 330 330 329 329 329 328 327 325 323 321 319 318 319 320 321 320 318 317 316 316 316 315 316 316 317 318 318 318 319 319 319 319 319 319 319 319 318 318 318 317 316 315 315 314 314
343 342 339 333 326 325 328 326 324 325 325 324 327 329 332 334 334 333 333 333 334 335 334 333 333 332 332 331 331 330 329 330 330 329 327 324 322 321 320 320 320 320 320 319 319 317 316 316 316 316 316 317 317 317 318 318 319 319 319 319 318 318 318 318 318 318 318 318 317 317 316 315 315 315
343 343 343 340 332 328 329 327 326 327 326 324 324 328 331 333 333 334 334 334 335 334 333 333 333 332 331 331 330 330 330 331 329 327 324 321 319 320 321 320 320 319 319 318 318 317 316 316 316 316 317 317 317 318 318 318 318 318 318 317 317 316 315 314 314 314 313 314 314 315 315 314 314 313
345 344 343 343 338 332 329 328 328 327 326 324 325 327 330 331 332 334 334 334 334 334 334 333 332 332 331 331 331 331 331 329 326 322 320 318 319 319 319 319 318 317 317 317 317 317 315 316 316 316 316 317 317 317 317 317 316 315 314 312 312 311 310 308 309 309 310 311 312 314 315 315 315 315
347 346 344 343 341 335 330 329 329 327 326 326 327 329 330 331 332 334 333 333 334 334 333 333 332 332 331 331 331 330 327 324 321 319 318 318 318 317 317 316 315 314 314 315 317 316 313 313 314 314 314 314 314 313 312 311 309 308 308 308 308 308 308 309 311 313 314 315 316 316 317 317 318 318
347 347 345 344 342 338 334 330 330 330 329 329 332 332 331 331 333 333 333 334 334 333 333 333 332 331 331 330 329 325 322 319 318 317 317 317 316 315 314 313 311 310 309 311 314 314 311 309 311 310 309 309 308 307 306 307 307 308 309 310 310 311 312 313 315 316 316 316 316 317 317 317 318 318
346 345 345 344 343 341 337 333 331 331 331 332 334 333 332 332 334 334 335 335 333 332 332 333 332 331 330 328 324 321 318 317 317 316 316 315 314 312 312 311 309 308 307 306 308 309 308 307 308 307 306 305 305 305 306 308 311 312 313 313 313 313 314 314 315 315 315 315 315 316 316 316 317 317
345 345 344 343 341 339 338 334 332 332 332 332 332 331 332 334 335 335 335 334 333 332 332 332 331 331 328 324 320 318 317 317 316 314 313 312 312 312 312 311 309 308 307 305 305 306 306 306 307 306 306 305 305 306 308 310 311 313 313 313 312 312 313 313 313 314 314 314 314 315 315 315 316 316
347 345 343 342 341 340 338 335 333 333 333 332 330 330 333 335 336 334 333 333 333 332 332 332 331 328 323 320 318 317 316 315 313 312 311 312 312 313 312 310 308 307 307 306 305 306 306 306 306 306 307 307 306 307 308 309 310 310 310 310 308 309 311 312 313 313 313 314 314 315 315 316 317 317
347 345 344 343 342 340 338 336 335 334 332 330 329 331 334 336 335 334 333 332 332 332 332 331 328 323 319 318 317 316 314 313 312 311 312 313 313 313 311 309 307 306 306 306 306 306 306 306 306 307 307 308 308 308 308 308 308 308 307 307 306 308 312 314 314 314 314 315 315 316 316 316 317 316
346 345 344 343 341 340 338 337 336 334 331 328 329 332 335 335 334 333 332 332 332 332 331 328 323 319 318 318 316 315 314 313 311 312 313 314 313 312 310 308 306 305 305 305 306 306 306 306 307 307 308 308 308 308 308 307 306 306 307 307 309 311 314 314 314 314 315 315 315 316 316 316 316 315
344 344 343 341 341 340 339 338 336 333 328 328 331 334 334 333 332 331 332 332 332 331 327 322 319 318 318 317 316 315 314 313 312 313 314 314 313 312 309 307 306 305 305 305 305 306 307 307 307 307 307 307 307 307 307 306 307 308 309 310 312 313 314 314 314 314 314 314 314 314 314 314 314 314
343 343 341 338 339 339 338 338 336 330 327 330 333 334 332 330 330 330 331 331 330 327 322 319 319 319 318 317 316 315 314 314 314 314 314 314 313 312 309 307 306 305 305 305 306 306 307 307 307 307 307 307 306 307 307 307 308 309 310 312 313 313 313 314 314 314 314 314 314 313 313 313 313 313
342 341 338 336 336 337 338 337 333 328 329 333 333 331 330 329 329 328 328 328 326 322 320 319 319 318 317 317 316 316 315 315 315 314 314 314 313 311 309 307 306 305 305 305 306 306 307 307 307 306 306 306 307 307 307 308 309 310 311 311 312 312 313 313 313 313 313 313 313 313 313 313 312 312
341 338 336 335 334 335 335 333 329 330 333 334 331 329 329 329 327 327 327 326 323 320 319 319 319 318 317 317 316 316 316 316 315 315 314 314 313 311 309 308 306 305 305 305 306 306 306 306 306 306 306 307 307 307 307 308 308 309 310 311 311 312 312 312 312 313 313 313 313 313 312 312 312 312
340 337 335 334 333 332 331 329 329 331 333 331 329 329 328 328 327 327 326 324 321 319 319 320 319 318 317 317 317 317 316 316 316 315 314 314 313 311 310 308 306 305 305 305 305 305 305 305 306 306 307 307 306 307 307 307 307 308 308 309 309 310 310 311 312 312 312 312 312 312 312 312 312 311
339 337 334 333 332 330 329 330 331 332 330 329 328 328 328 327 327 327 325 323 320 320 320 319 318 317 317 317 317 317 316 316 316 315 314 313 313 311 309 308 306 305 305 305 304 304 304 305 306 306 306 306 306 306 306 306 306 306 306 306 307 308 310 311 312 312 312 312 312 312 312 311 311 311
339 335 333 332 331 330 330 331 332 331 329 328 328 328 327 327 326 326 324 322 320 320 320 319 318 318 317 317 317 317 317 317 316 315 314 313 313 311 309 306 305 305 305 304 303 302 304 305 306 306 306 306 306 306 305 305 306 306 307 308 310 311 311 311 311 310 309 310 311 311 311 310 310 310
336 334 333 333 332 331 330 330 330 329 328 328 328 328 327 326 326 325 323 321 321 321 320 320 319 319 319 319 318 318 318 318 317 315 313 313 312 310 307 305 305 305 305 304 302 302 303 305 305 305 305 305 306 305 305 306 308 310 311 312 312 311 310 309 308 307 307 308 310 310 310 310 310 310
334 333 334 334 333 332 331 330 329 329 328 328 328 327 327 326 325 323 321 321 322 322 321 320 320 320 320 320 320 319 319 318 316 314 313 313 311 308 306 305 305 305 304 302 302 303 303 304 303 304 304 305 305 305 306 308 310 311 312 312 311 310 309 308 307 306 306 308 310 310 310 310 309 308
334 334 335 334 334 333 331 330 329 328 327 327 327 327 326 326 323 321 321 322 322 322 321 321 321 321 320 320 320 320 319 317 315 314 313 312 309 307 306 305 305 305 303 302 302 303 304 303 303 303 304 304 305 305 306 308 310 311 311 311 311 310 309 308 307 306 306 308 310 310 310 310 308 304
334 335 335 334 334 333 332 330 328 326 326 326 326 327 327 325 322 321 322 323 323 322 322 321 321 321 320 319 320 320 318 316 315 314 313 310 307 306 306 305 305 304 302 301 302 303 303 303 303 304 304 304 305 305 306 307 309 310 311 311 311 310 309 308 306 305 306 308 309 309 309 308 305 302
335 335 334 334 333 331 330 328 326 325 326 326 327 327 326 324 322 322 323 323 322 322 321 321 320 320 319 319 318 317 316 315 314 314 311 309 307 306 305 305 304 302 301 301 302 303 303 303 303 304 304 304 305 306 306 307 308 310 311 311 311 309 308 306 306 306 306 308 309 308 307 305 302 302
335 335 334 333 331 328 327 326 325 325 326 327 327 327 326 324 323 323 323 322 322 321 321 320 319 319 319 318 317 316 315 314 314 312 309 307 306 305 305 304 303 301 300 300 301 302 302 302 303 304 304 304 305 306 307 307 307 308 309 309 308 307 306 306 306 306 307 307 307 306 304 302 302 305
335 333 331 329 327 326 325 324 325 326 327 327 327 327 325 323 323 323 322 322 321 321 320 319 318 318 318 317 316 315 314 313 311 309 308 307 306 305 304 303 301 300 300 300 301 301 301 302 303 304 304 304 305 307 308 308 307 306 306 306 306 306 306 306 306 306 306 306 305 303 302 302 305 307
335 331 327 325 324 324 324 324 326 327 327 327 327 326 324 323 323 323 322 321 320 320 319 318 318 317 317 316 315 313 311 309 308 307 307 306 305 305 304 302 300 299 300 300 300 300 301 302 303 303 304 304 306 307 307 307 307 305 305 305 306 306 306 306 306 306 305 304 303 302 303 304 305 306
332 327 324 323 323 323 324 325 326 326 325 325 326 325 324 324 323 322 321 321 320 320 319 318 317 317 316 314 313 311 310 309 307 306 306 305 305 304 302 300 299 299 299 299 299 300 301 302 303 303 304 305 306 307 307 306 306 306 306 306 306 306 305 304 304 303 302 302 302 303 304 305 304 304
327 324 323 323 323 324 325 325 325 324 324 325 325 324 324 324 322 322 321 320 319 319 318 317 316 315 314 312 311 311 311 310 308 306 306 305 304 303 301 300 299 298 298 298 298 299 301 302 302 303 303 305 306 306 306 306 306 306 306 306 306 305 304 302 300 299 299 300 302 304 304 304 303 303
323 323 323 323 324 324 325 324 323 323 324 324 324 324 324 323 322 321 320 319 319 318 316 315 314 313 312 312 312 312 311 310 308 306 305 304 303 302 301 301 300 298 297 297 298 300 301 302 302 303 304 305 306 306 306 306 306 306 307 306 306 305 303 300 298 297 297 300 303 305 304 303 302 302
323 323 323 323 323 323 323 323 323 324 324 325 325 325 324 322 321 320 319 318 317 316 314 313 312 312 312 312 313 313 312 310 308 306 305 304 304 303 302 302 301 298 297 297 299 300 302 302 302 303 304 305 306 306 306 306 306 306 307 306 306 305 303 301 299 297 297 300 304 306 305 304 303 303
324 323 323 323 323 322 323 324 324 324 325 325 325 324 322 320 319 318 317 316 315 314 313 313 312 313 313 313 313 313 312 310 307 306 305 305 304 304 303 303 301 298 296 297 299 301 302 302 302 303 304 305 306 306 306 306 306 306 307 306 306 305 303 300 298 297 297 300 304 306 306 305 304 304
Wind_Speed
10 11 14 15 16 16 17 16 15 15 15 15 15 14 13 12 12 11 11 11 11 10 10 11 11 11 11 11 12 12 12 12 11 11 11 11 10 9 10 11 12 13 14 15 15 15 16 16 16 16 16 16 16 15 15 16 17 17 16 16 15 15 16 17 18 18 19 19 19 18 17 16 16 16
11 12 14 16 16 17 18 17 16 16 16 16 16 15 14 13 13 13 14 15 14 13 13 12 11 10 10 10 11 11 11 11 10 10 10 10 10 10 10 11 12 14 15 16 17 17 18 18 19 18 18 18 17 18 18 18 18 19 19 19 18 17 17 17 18 19 19 19 18 18 17 17 17 17
13 13 14 16 17 18 19 19 19 18 18 17 17 16 15 14 14 15 16 18 18 16 15 14 12 10 10 10 11 10 9 9 9 9 9 10 10 11 11 12 13 14 15 16 17 18 19 19 20 19 19 19 19 20 21 21 21 20 20 20 20 19 19 18 19 20 20 20 19 19 19 19 19 19
14 15 15 16 17 18 19 20 20 19 19 18 17 17 16 15 16 16 17 20 20 18 16 15 13 11 11 10 10 9 8 8 8 9 10 11 12 12 13 13 15 16 17 17 17 18 18 18 18 19 19 20 21 22 22 22 21 19 19 19 20 20 20 20 20 20 21 21 22 22 22 22 22 22
16 16 16 16 17 18 19 20 20 20 19 19 18 17 16 16 16 16 16 19 20 18 15 14 13 12 12 12 10 9 9 9 9 10 11 12 12 13 14 16 17 19 19 19 19 20 20 18 18 17 18 19 20 20 20 20 18 18 18 19 20 21 21 21 21 21 21 22 22 23 23 23 23 23
18 18 17 17 17 18 19 20 20 20 20 19 18 17 16 16 15 15 16 17 18 17 15 14 13 12 13 12 11 10 11 11 10 11 12 13 14 15 17 19 20 21 21 22 22 22 21 19 18 17 17 17 17 18 18 18 17 17 18 19 20 21 22 22 22 22 22 23 23 23 23 23 24 24
19 19 18 18 18 18 20 20 21 21 20 20 19 18 17 17 16 16 16 16 17 18 16 15 13 12 12 12 12 12 12 12 12 14 15 16 17 18 21 23 23 23 24 24 24 22 20 18 17 17 17 17 17 17 17 17 17 18 19 21 22 22 22 22 22 22 23 24 25 25 25 25 25 25
20 20 20 19 19 19 20 21 21 21 20 20 20 20 19 19 18 17 16 16 16 17 18 16 14 12 12 13 13 14 14 14 15 17 18 19 19 21 23 25 25 25 26 25 22 19 17 17 17 17 18 18 18 18 17 17 19 20 22 23 24 23 23 23 24 24 25 26 27 27 27 27 28 27
20 20 21 20 20 21 21 22 22 21 21 21 21 21 20 19 19 18 17 16 15 17 18 18 15 14 14 14 14 16 16 17 18 19 19 20 22 24 26 26 27 27 26 23 20 18 17 17 18 19 20 20 19 19 19 19 21 23 24 25 25 25 25 25 26 26 27 28 28 28 27 27 28 28
21 21 21 21 22 22 22 23 23 22 22 21 21 21 20 18 18 18 17 17 17 17 18 17 17 15 14 15 15 16 17 18 20 20 21 22 23 26 28 28 27 25 23 21 19 19 18 18 19 20 20 19 18 19 20 21 22 23 25 26 27 27 28 28 28 29 29 28 28 28 28 28 29 29
22 21 21 22 22 22 23 24 24 24 23 22 21 21 20 19 19 18 18 19 19 19 18 18 17 17 16 16 16 18 19 20 21 21 23 24 26 27 28 27 25 23 22 21 21 20 20 19 19 19 19 19 19 20 21 23 24 25 26 27 27 28 29 29 29 28 27 26 26 27 27 27 28 29
23 22 22 22 21 22 23 24 25 24 23 22 22 22 21 21 20 19 19 20 21 21 21 20 18 18 19 18 18 20 20 21 21 22 24 26 27 28 28 26 24 23 23 23 23 22 21 21 21 21 22 22 23 24 25 25 26 27 27 27 26 25 25 25 25 24 23 22 21 22 22 23 24 24
24 23 22 22 21 21 23 24 25 24 24 24 24 23 22 21 21 19 19 20 21 22 23 22 20 21 21 21 20 21 21 21 22 24 26 27 27 28 27 25 23 24 24 24 24 24 24 25 25 26 27 27 27 28 27 26 25 24 23 23 22 22 21 21 21 21 20 20 20 20 20 21 21 21
25 24 24 23 23 23 23 24 24 24 25 25 24 23 22 22 21 19 19 19 19 20 22 22 22 22 23 22 21 21 20 21 23 24 25 26 26 26 26 26 24 23 24 25 26 26 26 27 28 27 28 28 27 26 25 23 22 21 20 19 19 20 20 20 20 20 20 21 21 21 21 21 21 22
24 25 26 26 25 25 25 24 24 24 25 24 24 24 23 22 21 19 18 18 19 19 20 21 21 22 22 22 20 19 19 20 22 24 25 25 25 25 26 27 26 24 25 27 29 29 27 27 28 27 26 26 25 24 23 22 21 21 20 19 18 18 19 20 20 21 21 21 21 21 21 22 22 23
25 28 29 28 27 27 25 23 23 25 25 24 24 24 23 22 21 19 18 18 19 20 20 20 20 20 20 20 18 18 19 21 22 23 23 23 24 24 25 26 26 26 26 27 29 30 28 26 27 27 25 25 24 24 23 22 21 21 20 19 19 19 19 20 20 21 22 22 23 24 24 25 26 26
27 29 29 30 30 28 24 23 23 25 26 23 23 23 23 22 21 20 19 18 19 20 20 19 19 19 18 18 18 18 20 22 22 22 22 23 23 23 24 25 26 26 25 26 28 29 27 25 26 27 25 24 23 23 23 22 22 22 21 21 22 22 23 23 23 24 25 25 26 26 26 26 26 27
29 30 29 30 31 28 25 23 23 24 25 24 22 21 22 22 21 20 19 19 20 20 19 19 18 18 18 17 18 19 20 20 20 21 22 22 22 23 24 25 25 24 24 25 26 28 27 25 26 27 25 23 23 24 24 24 24 24 24 24 24 23 23 22 22 22 22 22 22 22 22 22 21 21
31 30 30 31 32 28 25 24 22 24 24 22 21 20 20 21 21 19 19 19 20 20 18 18 17 17 17 17 18 18 18 19 20 21 22 22 21 22 22 22 22 21 21 23 24 27 27 25 26 27 25 25 25 25 25 24 23 22 21 20 19 18 18 17 17 16 16 17 18 19 19 20 21 21
31 31 31 33 33 30 27 25 23 23 23 21 20 19 19 20 20 19 19 19 18 18 17 17 17 17 17 17 17 17 17 19 20 21 20 19 18 17 17 17 17 17 18 20 21 25 26 24 24 26 26 25 26 25 22 19 16 14 14 14 15 15 15 15 15 15 16 17 18 19 20 21 22 22
31 32 33 33 33 30 30 29 25 22 22 22 21 18 18 19 19 19 19 18 17 16 16 17 17 17 17 16 16 17 18 19 20 18 16 14 12 12 13 15 16 16 17 18 18 21 24 22 22 25 25 24 24 22 18 14 12 11 12 13 14 15 15 16 16 18 18 19 19 20 20 21 22 23
29 30 32 32 29 27 27 28 26 23 22 22 21 19 18 19 19 19 18 18 17 17 16 16 16 16 16 16 16 17 18 18 17 14 11 9 8 10 13 16 18 18 17 16 16 18 20 20 21 23 24 24 22 19 16 15 14 13 14 16 16 16 16 17 18 19 20 21 21 21 21 21 22 23
27 27 29 31 29 27 25 25 25 25 24 23 21 18 18 19 19 19 18 17 17 17 16 15 15 15 14 14 15 15 16 15 13 9 7 7 9 12 15 16 17 18 17 15 15 18 20 20 20 20 22 25 24 21 19 18 18 18 19 20 19 17 16 17 19 20 20 21 21 21 21 20 20 21
28 26 27 29 29 27 25 24 25 25 24 22 20 18 18 19 18 18 18 18 17 16 15 15 14 13 13 13 12 12 12 10 8 6 7 10 12 14 15 15 15 17 17 16 15 18 19 20 20 18 18 22 26 25 23 22 22 23 23 22 19 16 15 17 19 19 19 19 19 18 18 18 18 20
30 28 27 27 26 23 22 22 23 22 21 20 19 17 17 18 18 18 18 17 17 16 15 13 12 12 11 10 9 9 8 7 6 7 9 12 13 15 16 16 15 16 17 15 14 17 19 20 20 19 19 20 23 26 27 28 26 23 21 19 17 15 16 18 19 19 18 18 18 18 18 18 19 21
33 31 28 27 23 19 19 20 19 19 20 20 17 16 16 17 18 19 18 17 17 16 14 12 12 11 9 8 7 6 5 5 6 8 11 12 15 16 16 16 15 16 17 15 14 15 18 20 20 19 20 21 24 26 28 29 27 23 19 17 15 16 18 20 20 20 19 19 19 19 20 20 20 22
32 29 27 26 22 18 18 18 18 20 21 19 17 16 17 18 19 18 17 16 16 14 12 12 11 10 8 7 5 4 4 5 7 9 11 13 15 17 17 16 16 16 16 15 14 15 18 20 19 19 21 23 25 25 26 26 25 23 21 19 17 18 19 20 21 21 21 21 21 21 22 22 22 23
29 27 27 26 23 19 17 18 19 21 20 18 17 18 18 19 19 17 16 16 15 13 12 11 11 10 9 7 5 4 5 7 8 9 12 14 16 17 17 17 16 16 16 14 14 15 18 19 20 21 22 22 23 24 24 25 25 25 24 23 21 21 21 21 21 22 22 23 23 23 24 25 25 26
28 27 28 27 23 19 18 20 22 21 19 18 18 19 20 20 18 17 16 16 15 13 12 12 12 11 9 7 6 6 7 9 10 11 12 14 16 17 17 17 17 16 15 14 15 16 18 20 21 21 21 20 21 23 24 25 27 26 25 25 26 24 23 22 22 23 24 25 25 25 25 26 27 28
26 27 28 27 23 21 22 24 23 21 19 19 19 20 20 19 18 16 16 16 14 12 12 13 12 11 10 9 9 9 9 10 11 12 13 14 15 17 18 18 17 16 15 15 16 17 18 19 20 20 20 20 21 22 23 25 28 29 27 27 27 26 24 23 23 24 25 26 27 27 27 28 29 30
25 27 28 26 24 23 24 23 21 20 20 20 21 21 20 18 17 17 16 15 14 13 13 13 12 11 11 11 11 11 12 12 13 14 14 14 15 17 18 18 18 17 16 17 17 17 17 17 18 19 20 20 20 21 22 25 28 29 27 24 23 23 23 22 23 24 26 27 29 29 30 31 32 33
27 29 28 26 26 26 25 23 22 22 22 22 22 21 19 18 17 17 17 16 14 14 14 13 12 12 13 13 13 14 14 14 14 15 15 15 16 17 18 18 17 17 18 19 19 16 15 15 16 18 19 20 20 20 22 23 23 22 21 20 19 21 22 23 25 26 27 29 31 32 32 33 34 35
31 30 29 28 28 28 27 26 25 25 24 23 23 21 20 18 18 18 17 15 14 13 13 13 13 14 14 15 15 16 15 14 15 15 15 16 17 17 17 16 16 17 19 21 19 17 15 16 17 17 17 18 19 19 21 22 19 17 17 19 20 22 24 25 26 28 29 31 33 34 36 36 37 38
33 31 30 29 28 29 29 28 27 26 25 24 23 22 20 19 18 18 16 14 13 14 14 14 14 15 16 17 17 17 16 14 14 15 15 17 17 17 16 15 16 18 20 21 19 17 17 18 18 17 16 16 16 15 16 17 17 16 17 19 21 24 26 28 29 31 31 32 33 36 38 40 40 40
32 31 31 30 29 29 29 28 27 26 26 25 23 21 20 19 18 17 15 14 13 14 15 15 15 16 17 17 18 17 15 14 14 15 16 17 17 15 14 15 17 19 20 20 18 17 18 19 19 17 16 16 16 14 12 13 16 18 19 21 22 25 28 30 32 33 32 32 33 36 39 42 44 44
32 30 30 30 30 30 29 28 27 26 25 24 22 21 20 19 18 16 14 13 14 15 15 14 15 16 16 17 16 15 14 14 14 14 15 16 16 15 14 16 18 20 20 19 18 18 19 19 17 17 17 18 19 18 15 14 14 16 19 22 24 26 29 32 33 34 33 33 33 35 39 44 46 46
33 31 29 29 30 30 29 28 27 26 24 22 21 20 20 19 17 15 14 14 15 14 13 14 14 15 15 15 14 14 14 14 14 15 15 15 15 15 16 17 19 20 20 19 18 19 20 18 15 15 18 19 20 21 21 18 15 15 18 23 26 28 30 32 34 35 34 34 34 36 40 44 47 46
34 32 30 29 29 29 28 27 26 25 23 22 20 20 19 18 17 16 15 15 14 13 13 13 13 12 13 13 13 13 13 14 14 14 14 14 14 15 16 18 19 20 20 20 19 19 19 16 13 13 16 18 20 22 23 22 20 18 19 22 26 28 29 31 33 34 34 35 37 39 41 44 46 47
33 31 30 30 29 28 27 26 25 24 22 21 20 19 19 19 17 16 15 14 13 12 12 12 11 12 13 14 13 13 13 14 14 13 13 13 13 14 16 18 20 20 20 20 20 20 17 14 12 13 15 17 19 20 21 22 22 21 20 21 24 27 28 29 31 33 35 36 38 40 42 44 46 47
32 30 29 29 28 27 25 24 23 22 21 20 19 19 19 18 16 15 14 13 12 12 11 11 12 13 14 13 12 12 11 11 11 11 11 12 13 14 17 18 18 19 20 20 21 20 16 12 12 14 15 16 17 18 19 20 22 23 22 22 23 25 27 29 30 33 34 35 37 40 43 45 46 46
31 30 29 27 26 24 24 23 22 21 20 19 19 19 18 17 15 14 13 13 12 11 11 12 13 13 12 11 11 10 9 9 9 10 10 12 13 15 16 16 17 18 19 21 21 19 16 13 12 14 15 16 16 17 18 20 22 23 23 24 25 26 27 29 29 30 31 32 34 37 40 42 43 44
30 29 28 26 24 23 23 22 21 20 20 19 19 19 18 16 15 14 13 13 12 11 11 12 12 12 11 11 10 9 9 9 9 10 11 12 14 14 14 15 16 18 19 20 20 18 15 13 13 14 15 15 16 16 18 20 21 23 24 26 27 28 29 29 28 27 27 28 31 34 36 37 38 41
29 27 26 24 23 22 22 21 20 19 19 18 18 18 17 15 15 14 14 13 12 12 12 12 12 11 11 10 9 10 10 10 10 11 12 13 13 13 14 16 18 19 20 20 19 17 15 14 14 14 14 14 15 16 18 19 21 22 25 27 29 31 32 31 29 26 24 25 29 31 31 31 32 34
25 23 22 22 22 21 20 19 18 18 18 18 18 17 16 15 14 13 12 11 11 11 11 11 11 10 9 8 9 11 11 10 11 12 13 13 14 14 16 18 19 20 20 20 19 17 15 13 14 14 13 14 15 16 18 19 21 23 25 26 29 32 34 33 32 30 27 27 30 33 32 30 31 33
20 19 20 20 20 19 18 17 17 18 18 18 18 16 15 14 13 11 11 11 11 11 11 11 10 9 8 9 10 11 11 11 12 13 14 15 15 16 17 19 21 21 20 19 18 17 15 14 14 13 13 13 15 16 17 18 20 23 24 26 29 32 35 35 34 33 31 31 33 35 35 33 33 35
Wind_Direction
249 247 244 242 245 250 254 258 257 253 251 250 253 260 267 272 276 277 278 283 289 291 291 294 296 292 287 282 282 285 292 295 295 293 295 300 303 304 308 312 313 312 310 309 308 305 302 297 294 291 289 289 289 290 289 288 287 287 288 291 293 292 289 284 281 280 281 282 282 282 282 281 281 280
250 249 246 243 244 247 251 255 256 255 254 253 255 261 267 272 276 281 287 292 295 298 301 306 305 296 285 279 281 286 292 295 297 297 298 299 303 307 312 317 318 316 313 310 308 306 302 298 294 290 287 285 284 285 286 285 282 280 279 282 285 287 286 284 281 279 278 276 274 273 273 275 275 276
247 250 250 248 246 246 249 253 254 255 255 255 257 261 266 271 276 282 288 291 294 299 304 308 306 294 282 276 280 286 292 296 300 301 301 301 303 305 307 309 311 313 312 309 306 303 300 297 292 287 284 282 281 282 284 285 283 278 274 275 279 280 279 278 277 275 274 272 271 270 270 270 271 272
242 248 251 251 251 249 250 253 254 254 254 256 259 263 267 271 276 280 284 286 292 298 300 303 301 291 281 277 281 283 282 287 294 298 301 302 302 303 303 304 306 308 309 308 305 302 298 294 288 281 278 278 280 282 284 284 282 276 272 271 273 275 275 275 274 271 269 268 268 269 270 270 270 271
239 246 249 250 252 253 253 254 254 254 256 258 262 266 270 273 275 277 279 282 288 293 295 297 294 284 280 279 281 279 275 278 284 292 302 305 304 304 304 305 307 308 310 309 305 302 298 291 284 279 276 275 278 281 283 283 278 272 268 268 270 273 275 275 273 270 267 266 266 266 267 268 269 270
237 244 248 249 249 252 255 255 254 255 257 260 264 268 273 277 277 277 279 280 283 288 291 292 288 281 277 277 277 280 283 284 285 293 303 305 303 303 303 305 308 309 310 308 305 302 297 289 281 278 278 280 281 282 283 282 277 269 266 266 269 272 274 273 271 270 269 268 267 267 266 267 268 269
237 241 245 248 248 250 254 256 256 257 259 262 265 268 273 278 279 278 279 279 281 286 290 291 289 283 277 277 280 286 291 293 292 296 301 301 300 300 303 306 309 310 310 309 307 303 297 287 280 279 281 284 287 287 283 279 275 269 267 267 268 269 269 269 270 270 271 270 269 269 270 271 271 271
240 242 245 249 250 251 254 257 257 258 260 263 265 268 272 277 278 278 279 279 280 284 287 289 291 287 281 281 285 290 295 297 296 297 299 299 299 301 305 308 310 311 312 312 309 303 295 288 284 285 287 289 289 286 281 276 273 270 269 268 269 269 269 270 272 274 275 274 272 270 269 269 270 270
245 246 247 250 253 254 256 258 259 260 261 264 266 268 271 273 274 275 277 279 280 280 282 286 289 286 285 286 289 293 297 297 296 297 297 298 300 304 308 310 312 314 315 313 309 302 294 288 286 287 290 291 289 283 277 274 273 273 274 275 275 275 274 275 275 277 276 274 271 268 266 265 265 266
249 249 250 253 256 257 259 261 261 261 262 265 268 269 270 270 270 273 277 281 281 278 278 282 284 286 287 289 291 294 297 298 299 297 294 295 302 308 311 312 314 315 315 313 310 305 299 292 289 288 288 288 285 281 279 278 279 280 280 281 282 282 280 279 279 278 276 273 269 267 265 265 265 265
250 252 253 256 259 261 262 263 262 261 261 264 267 268 268 268 268 272 277 279 278 275 273 274 278 283 286 288 291 295 300 303 303 300 297 299 306 311 312 312 313 313 313 312 310 308 305 299 294 291 288 288 286 284 284 285 287 286 285 284 284 283 283 282 282 280 277 274 271 269 268 268 268 267
249 252 254 256 258 261 263 264 263 261 261 263 266 266 266 267 268 271 276 276 273 270 269 270 274 279 282 286 290 294 299 302 302 302 303 306 310 313 312 312 313 312 311 310 310 309 306 302 299 296 294 295 296 294 293 292 289 287 286 287 287 286 284 284 282 279 276 273 271 270 271 271 271 271
247 252 255 252 250 253 258 262 264 263 262 263 265 267 266 265 268 272 275 274 269 266 268 269 272 277 281 283 286 290 294 298 300 302 304 306 310 311 309 310 312 312 311 310 308 307 306 302 300 299 299 300 301 302 302 300 295 289 286 286 287 288 286 282 278 274 272 271 271 271 272 271 270 270
247 252 254 249 246 248 253 259 262 262 262 262 264 267 266 265 269 272 272 270 268 268 268 270 273 276 279 281 285 290 293 295 298 300 302 306 310 310 308 309 311 312 310 309 307 307 307 305 304 303 303 304 305 307 309 308 301 294 290 288 288 288 285 281 276 273 272 272 272 272 271 270 268 267
245 249 250 248 244 244 250 255 257 257 258 260 262 264 265 267 271 270 267 267 268 269 269 270 273 275 278 282 286 290 293 295 296 299 303 308 311 310 309 308 310 311 310 309 309 310 311 311 309 309 309 309 309 310 311 309 302 296 294 293 290 286 282 278 276 274 273 272 272 272 272 272 271 269
241 245 247 248 246 244 248 253 252 250 253 258 261 263 267 271 270 266 265 265 265 266 269 271 273 275 280 284 288 291 294 296 298 301 306 309 309 307 306 305 307 310 311 310 309 310 314 314 311 311 313 311 310 309 307 304 300 296 295 293 291 287 282 279 277 275 275 274 273 273 273 273 272 271
237 242 246 249 248 245 246 251 251 249 251 256 260 263 266 268 265 263 262 261 261 265 269 272 274 277 282 286 290 293 295 297 300 304 306 306 304 303 303 304 308 312 313 311 308 309 314 315 311 311 312 309 306 305 302 300 298 296 295 292 291 289 287 285 282 280 279 278 278 277 277 277 277 275
238 243 246 250 251 248 243 245 250 249 248 253 259 261 262 263 262 261 259 257 260 264 267 271 275 279 283 287 291 293 295 299 303 305 304 303 302 302 305 308 311 315 315 312 308 309 312 314 311 310 311 308 303 302 300 299 298 297 295 293 290 290 289 288 287 286 285 285 285 286 286 286 285 283
241 246 250 252 254 252 243 240 246 248 247 254 260 259 259 260 258 257 256 256 261 266 269 273 275 279 284 290 292 294 298 302 303 303 302 302 304 306 309 311 313 315 313 309 307 306 308 311 310 308 308 306 303 304 305 305 304 300 296 293 292 291 292 292 293 293 291 290 289 288 287 286 286 284
245 249 252 253 255 255 247 240 243 247 248 254 260 258 256 255 254 253 253 256 262 268 271 272 274 280 287 291 294 297 300 301 301 301 302 305 307 309 312 314 315 314 308 305 304 303 305 309 308 306 308 308 307 309 313 314 311 304 297 296 296 295 295 296 296 294 291 289 287 285 283 283 284 282
244 245 247 249 252 254 249 241 239 243 248 252 255 254 251 249 248 249 251 256 262 263 263 267 274 282 288 292 295 297 299 300 301 302 303 305 307 312 318 321 322 320 315 311 307 303 305 311 311 308 310 310 310 314 320 320 315 306 299 299 299 297 295 295 294 291 289 288 286 285 283 281 279 277
239 241 238 239 244 249 246 240 237 241 249 253 250 246 244 244 245 248 252 256 256 253 256 265 275 282 287 291 293 297 301 304 304 303 300 299 307 321 327 326 324 325 327 327 318 309 311 315 314 313 313 311 312 316 320 319 317 312 307 307 307 306 302 298 294 291 290 289 288 286 284 281 278 276
235 233 226 228 236 243 243 239 236 241 251 253 244 235 235 240 244 248 250 252 253 255 259 266 273 279 283 287 294 302 306 305 300 296 295 305 318 326 327 325 321 322 330 336 326 316 315 316 315 316 315 312 313 317 318 316 315 313 312 313 314 313 307 300 297 296 295 294 291 288 285 283 283 282
231 225 219 222 229 236 239 239 238 244 249 243 230 225 231 238 243 245 246 247 251 257 262 265 270 274 279 288 300 309 307 297 286 287 304 317 324 326 324 323 319 319 328 335 326 315 313 312 311 313 311 308 309 312 313 311 312 315 316 317 317 316 309 304 303 304 304 301 298 295 293 292 292 293
221 217 212 213 218 225 235 238 241 245 240 226 218 223 232 238 241 242 243 244 247 252 256 258 261 267 276 292 306 311 305 287 276 294 313 321 325 325 323 321 319 322 329 331 320 309 306 305 307 309 307 304 304 307 308 310 314 319 321 321 320 316 312 311 312 314 313 309 306 304 302 301 300 299
218 211 201 201 206 217 230 239 243 239 226 215 215 222 228 235 239 239 240 242 244 246 246 247 254 264 276 290 303 315 315 295 289 303 315 321 324 325 325 322 319 322 327 325 314 303 300 301 304 307 306 304 305 306 307 310 315 321 324 323 318 314 313 314 314 316 316 313 310 307 306 305 303 302
219 208 193 190 194 206 223 237 237 227 216 212 214 219 227 235 239 238 237 238 238 237 238 243 254 264 270 277 294 320 324 307 302 310 314 318 322 323 323 322 319 319 320 315 305 298 298 299 301 303 303 303 304 305 307 311 314 318 320 318 313 311 312 313 313 314 314 312 310 308 306 305 303 303
212 199 186 183 186 197 216 227 222 213 209 210 215 222 231 236 236 233 231 231 230 230 235 246 255 259 259 264 282 305 309 305 306 309 312 316 318 319 320 321 319 317 315 308 299 296 295 296 297 298 299 301 303 305 308 310 311 313 315 314 312 312 312 310 311 312 312 311 311 309 307 306 305 306
195 185 178 178 182 192 204 207 203 201 203 210 218 227 233 234 232 230 227 225 225 228 239 250 253 253 254 261 274 289 297 300 302 304 309 313 315 316 317 318 317 315 311 303 297 294 294 294 295 295 296 299 301 304 308 309 308 309 311 311 311 312 311 309 310 312 312 313 312 310 310 310 311 311
181 175 174 176 179 185 190 193 195 198 204 212 221 228 231 231 230 228 225 222 224 234 246 250 248 248 253 263 273 282 291 297 297 298 302 309 312 312 312 314 315 313 307 302 299 298 296 294 293 293 295 297 300 304 307 308 305 305 308 309 309 310 310 311 313 315 316 316 314 312 311 312 312 312
180 175 172 173 175 179 184 190 196 202 208 216 222 225 226 227 225 223 221 221 230 243 247 245 243 245 252 262 272 278 286 293 295 294 298 306 311 311 309 312 313 310 306 304 303 302 297 292 291 294 296 298 301 303 304 304 305 308 312 313 312 311 315 319 319 319 319 317 315 314 313 312 313 312
182 176 171 171 175 180 185 190 197 204 209 215 219 221 222 222 220 218 218 224 236 244 244 242 243 246 252 262 268 272 281 290 291 293 300 308 310 308 308 309 309 306 305 305 306 304 297 291 292 295 297 300 303 305 307 309 313 317 321 323 322 322 326 328 325 322 321 319 318 317 314 313 313 312
183 179 175 176 180 185 190 194 199 204 208 212 215 218 219 218 217 218 222 229 238 242 242 243 246 250 256 263 267 271 278 286 288 291 300 307 307 306 305 305 303 302 303 306 308 306 300 296 296 296 296 298 303 309 314 317 321 326 327 328 330 330 330 330 328 325 324 322 320 318 315 313 312 312
189 185 179 180 185 191 194 197 200 204 207 211 214 216 216 216 218 220 225 230 236 240 243 246 250 257 263 266 269 272 277 283 286 292 301 306 305 304 304 302 299 300 302 305 307 306 304 304 303 300 296 295 301 313 321 321 324 327 327 329 332 332 330 330 329 327 326 324 321 318 316 314 313 314
191 187 181 180 186 193 196 199 202 205 208 212 214 214 214 215 217 220 224 229 236 241 246 252 257 264 269 270 270 272 275 279 283 292 301 303 302 303 302 299 299 302 304 305 305 304 306 308 309 307 304 304 312 326 337 333 327 324 324 327 331 333 331 329 328 326 325 323 321 318 316 314 315 317
190 188 185 183 185 191 195 198 202 206 209 212 212 211 211 213 216 219 223 229 236 243 250 258 265 269 270 268 266 267 271 276 283 292 299 299 299 301 299 298 301 303 303 303 303 305 307 310 311 311 313 318 324 331 340 343 334 326 324 327 330 333 332 329 326 324 323 322 321 319 317 315 316 319
189 188 188 186 186 190 193 196 201 205 207 209 209 209 211 214 216 218 222 229 236 245 255 262 266 268 266 262 260 263 268 276 285 292 295 295 296 298 298 299 301 301 300 301 302 304 308 310 311 312 316 322 326 329 334 340 340 334 331 330 330 333 332 328 325 324 323 323 322 319 317 316 318 321
189 188 187 186 187 190 192 196 200 202 203 204 206 209 211 212 213 217 224 231 238 247 256 258 259 262 262 260 260 263 271 280 286 288 288 288 292 295 297 298 298 298 298 300 301 304 308 308 307 310 316 322 325 326 329 334 338 340 340 336 334 335 334 330 327 326 325 325 323 320 319 320 321 324
190 188 186 186 187 189 192 194 196 197 199 203 208 211 212 212 215 221 228 233 241 249 251 250 251 256 259 258 260 265 274 281 283 281 281 283 288 291 293 295 296 297 298 300 302 306 308 305 301 307 314 318 322 323 325 329 332 338 343 343 340 338 336 333 330 327 326 326 324 323 324 326 326 327
189 186 186 186 186 188 191 192 193 195 199 205 210 213 214 215 219 226 232 238 244 246 244 243 246 250 252 254 257 266 276 281 280 279 279 281 284 288 290 292 295 298 299 300 303 307 308 305 302 306 312 316 319 321 323 326 329 335 343 347 345 341 338 335 332 329 328 328 328 327 329 329 328 328
184 183 185 186 186 189 189 189 191 196 202 207 211 213 214 217 223 231 238 243 244 242 241 242 244 246 248 248 253 265 280 289 289 286 284 282 283 286 289 293 298 299 298 299 303 307 307 305 304 308 312 316 317 318 322 328 332 337 342 345 345 344 342 338 334 331 331 333 333 332 332 331 329 329
181 181 184 186 187 188 187 189 194 200 205 209 211 212 215 219 226 234 238 240 239 240 242 244 243 242 241 243 254 272 289 298 296 290 285 283 283 286 290 295 300 301 299 300 304 306 305 305 307 309 311 314 315 317 323 330 335 338 339 340 342 344 343 341 337 336 337 340 340 337 334 332 330 328
183 185 186 186 186 187 189 194 199 203 207 210 210 212 216 222 228 234 235 237 240 242 241 239 235 232 234 244 263 280 289 293 292 287 284 283 283 285 290 296 300 302 301 301 303 303 302 304 308 311 314 316 317 319 325 332 336 337 337 337 340 342 343 342 341 341 344 348 347 344 340 336 330 325
188 189 188 187 189 191 194 199 204 206 208 210 210 213 219 225 229 233 234 238 240 236 229 224 222 224 235 254 271 280 285 288 285 281 280 281 283 287 292 296 300 302 302 301 301 300 298 303 309 313 317 320 319 321 327 333 336 337 336 336 338 341 343 343 343 343 348 353 353 350 348 344 340 335
190 189 188 189 193 196 198 203 207 207 207 209 211 215 220 222 224 228 232 234 231 225 220 220 223 231 249 266 274 280 284 283 278 275 276 278 282 286 291 295 298 300 300 299 298 296 296 303 310 314 318 320 321 323 328 333 336 337 335 335 339 342 344 346 346 346 348 353 355 354 353 352 350 348